ELEKTRON 3 DEB, 29008

Orbit data source: Space-Track

ELEKTRON 3 DEB, 29008 is space debris originally from a launch on Fri, 10 Jul 1964 UTC launched from the Tyuratam Missile And Space Complex (TTMTR). Debris objects in space refer to the collection of defunct objects orbiting the Earth. Examples of debris include non-operational satellites, rocket bodies, and fragments generated from explosions, collisions, or faulty payload assembly.

Loading next visibility...
Identifier
29008, 1964-038G
Orbit
Active
Last TLE update
1 year ago
Origin
Manufacturer
Unknown
Mission
Spacecraft
Bus & Motor
Unknown
Mass
Unknown
Launch date (UTC)
1964-07-10 (61 years ago)
Launch vehicle
Unknown
Launch site
Tyuratam Missile And Space Complex (TTMTR)
Object type
Payload
Rocket body
Debris
Shape & HBR
Unknown
Radar Cross Section
Small (<0.1 m²)

Expand to show TLE details & history

TLE from 1 year ago
0 ELEKTRON 3 DEB
1 29008U 64038G   24088.72519352  .00006098  00000-0  15301-2 0  9991
2 29008  60.8373 212.7064 2884248 173.7282 190.9870  9.32974262656135
Epoch: 2024-03-28T17:24Z
Definitive object data (Epoch: 2024-03-28T17:24:16.72Z)
Latitude
-0.00005°
Longitude
125.01797°
Altitude
5,873.414 km
Speed
4.823 km/s
True Right ascension
14h 10m 49s
True Declination
0° 00' 00"
Sunlit
Object was in full shadow at TLE epoch
Visualization TLE readout
Latitude
59.2981°
Longitude
16.78224°
Altitude
5,832.808 km
Speed
4.835 km/s
Apparent Right ascension
04h 41m 32s
Apparent Declination
36° 40' 58"
Sunlit
Object is in daylight
Visualization observer readout
Local Sidereal Time
13:39:13
Azimuth
325.012° NNW
Elevation
-2.705°
Doppler factor
1
Orbital elements
Apogee altitude
5,901.351 km
Perigee altitude
403.616 km
Semi-major axis
9,530.62 km
Eccentricity
0.2884248
Inclination
60.8373°
RAAN
212.7064°
Arg. of periapsis
173.7282°
True anomaly
186.34775°
Mean anomaly
190.987°
Eccentric anomaly
188.53452°
Mean motion
2.33271 °/min
BSTAR
0.0015301
Orbital period
154.33 mins
Loading maneuver chart data...
Loading SW <> Apogee altitude chart data...
Loading historical data...
Loading historical data...
Loading historical data...
Loading historical data...
Loading historical data...
Loading historical data...
Loading historical data...

ELEKTRON 3 DEB Visibility forecast

Observer location: undefined°, undefined°

Span
Click to sort rows by Start time (UTC) header in descending order
Start Az.
Max El. time (UTC)
Max El. Az.
Max El.
End time (UTC)
End Az.
37 mins2025-05-09 14:54:32.460Z153.348° SSE2025-05-09 15:06:32.460Z94.764° ESE31.547°2025-05-09 15:31:32.460Z40.071° NE
50 mins2025-05-09 17:30:32.460Z226.471° WSW2025-05-09 17:45:32.460Z314.586° NW44.426°2025-05-09 18:20:32.460Z42.714° NE
59 mins2025-05-09 20:14:32.460Z280.948° WNW2025-05-09 20:38:32.460Z353.378° N37.127°2025-05-09 21:13:32.460Z67.125° ENE
62 mins2025-05-09 23:02:32.460Z311.181° NW2025-05-09 23:37:32.460Z35.271° NE41.273°2025-05-10 00:04:32.460Z112.63° SE
55 mins2025-05-10 01:50:32.460Z320.803° NNW2025-05-10 02:24:32.460Z249.756° W43.201°2025-05-10 02:45:32.460Z169.582° S
32 mins2025-05-10 04:41:32.460Z310.425° NW2025-05-10 04:58:32.460Z279.564° WNW18.941°2025-05-10 05:13:32.460Z241.463° WSW
|